TimeCST,TemperatureF,Dew PointF,Humidity,Sea Level PressureIn,VisibilityMPH,Wind Direction,Wind SpeedMPH,Gust SpeedMPH,PrecipitationIn,Events,Conditions,WindDirDegrees,DateUTC
12:09 AM,26.6,21.2,80,29.72,4.0,SSW,11.5,-,N/A,,Overcast,200,2012-12-19 06:09:00
12:53 AM,28.0,24.1,85,29.77,7.0,SSW,8.1,-,N/A,,Overcast,210,2012-12-19 06:53:00
1:53 AM,26.1,21.0,81,29.78,9.0,SSW,10.4,-,N/A,,Mostly Cloudy,210,2012-12-19 07:53:00
2:53 AM,21.9,17.1,82,29.79,10.0,SW,10.4,-,N/A,,Clear,220,2012-12-19 08:53:00
3:53 AM,21.0,15.1,78,29.81,10.0,SW,10.4,-,N/A,,Clear,220,2012-12-19 09:53:00
4:53 AM,23.0,17.1,78,29.81,10.0,WSW,10.4,-,N/A,,Clear,240,2012-12-19 10:53:00
5:53 AM,18.0,12.9,81,29.83,10.0,SSW,9.2,-,N/A,,Clear,200,2012-12-19 11:53:00
6:53 AM,18.0,12.9,81,29.86,10.0,SW,9.2,-,N/A,,Clear,220,2012-12-19 12:53:00
7:53 AM,15.1,10.0,80,29.88,10.0,SW,6.9,-,N/A,,Clear,220,2012-12-19 13:53:00
8:53 AM,17.1,10.0,74,29.90,10.0,SW,6.9,-,N/A,,Clear,230,2012-12-19 14:53:00
9:53 AM,19.9,10.9,68,29.91,10.0,WSW,11.5,-,N/A,,Clear,240,2012-12-19 15:53:00
10:53 AM,19.9,10.9,68,29.93,10.0,WSW,11.5,-,N/A,,Clear,240,2012-12-19 16:53:00
11:53 AM,21.0,12.0,68,29.93,10.0,SW,12.7,-,N/A,,Clear,230,2012-12-19 17:53:00
12:48 PM,21.2,12.2,68,29.90,10.0,WSW,12.7,-,N/A,,Mostly Cloudy,240,2012-12-19 18:48:00
12:53 PM,21.0,12.0,68,29.95,10.0,WSW,15.0,-,N/A,,Mostly Cloudy,240,2012-12-19 18:53:00
1:53 PM,21.9,14.0,72,29.95,10.0,WSW,11.5,-,N/A,,Overcast,240,2012-12-19 19:53:00
2:20 PM,23.0,14.0,68,29.91,10.0,West,11.5,-,N/A,,Overcast,260,2012-12-19 20:20:00
2:53 PM,23.0,15.1,72,29.97,9.0,WSW,9.2,-,N/A,,Overcast,250,2012-12-19 20:53:00
3:53 PM,23.0,16.0,74,29.99,10.0,West,9.2,-,N/A,,Overcast,260,2012-12-19 21:53:00
4:53 PM,24.1,16.0,71,30.00,9.0,WSW,6.9,-,N/A,,Overcast,250,2012-12-19 22:53:00
5:53 PM,24.1,18.0,77,30.03,7.0,West,10.4,-,N/A,,Overcast,270,2012-12-19 23:53:00
6:53 PM,21.9,16.0,78,30.06,10.0,NNW,15.0,-,N/A,,Overcast,340,2012-12-20 00:53:00
7:53 PM,21.2,15.8,80,30.02,10.0,North,10.4,-,N/A,,Overcast,360,2012-12-20 01:53:00
8:53 PM,19.9,15.1,81,30.11,10.0,North,4.6,-,N/A,,Overcast,350,2012-12-20 02:53:00
9:24 PM,19.4,15.8,86,30.06,10.0,NW,3.5,-,N/A,,Overcast,310,2012-12-20 03:24:00
9:53 PM,19.9,15.1,81,30.11,10.0,NNW,6.9,-,N/A,,Overcast,340,2012-12-20 03:53:00
10:12 PM,19.4,14.0,80,30.06,10.0,NNW,6.9,-,N/A,,Overcast,340,2012-12-20 04:12:00
10:53 PM,19.9,15.1,81,30.11,10.0,NNW,8.1,-,N/A,,Overcast,340,2012-12-20 04:53:00
11:06 PM,19.4,15.8,86,30.06,10.0,NNW,6.9,-,N/A,,Overcast,330,2012-12-20 05:06:00
11:53 PM,19.0,12.9,77,30.12,10.0,NNW,13.8,-,N/A,,Overcast,340,2012-12-20 05:53:00